Starlink 6221

operational
NORAD ID: 56484 Int'l Des: 2023-064 Owner: SPXS Country: US Constellation: starlink
LEOCIRCULAR

Über Starlink 6221

Beschreibung wird geladen...

Live-Position

3D-Globus wird geladen...

Nächste Überflüge

Höhenverlauf

Altitude vs Time

uPlot chart will show altitude changes over time

Zweizeiliger Elementsatz

1 56484U 23064AN 25261.26523571 -.00063597 00000-0 -54403-2 0 9999
2 56484 69.9998 199.1222 0002752 216.0603 144.0370 14.97832629129911
Epoch: 18. Sept. 2025 • Age: 10 hours

Aktueller Status

Höhe 577.7 km
Geschwindigkeit 7.57 km/s
Subsatellitenpunkt 20.91°N, 33°W
Startdatum 10. Mai 2023
Alter 2.3 years
Typ internet

Technische Details

Klassifizierung Payload
Masse 305.00 kg
Trockenmasse 290.00 kg
Gesamtmasse 305.00 kg
Länge 0.20 m
Durchmesser 2.80 m
Spannweite 9.00 m
Form Box + pan
Hersteller SPXS
Bus-Typ Starlink
Phasenstatus In Orbit
Besitzer/Staat SPXS/US

Große Konstellationen

Loading constellations...